TimeCST,TemperatureF,Dew PointF,Humidity,Sea Level PressureIn,VisibilityMPH,Wind Direction,Wind SpeedMPH,Gust SpeedMPH,PrecipitationIn,Events,Conditions,WindDirDegrees,DateUTC
7:35 AM,39.2,33.8,81,29.98,10.0,ESE,9.2,-,N/A,,Clear,110,2012-12-06 13:35:00
7:55 AM,41.0,35.6,81,29.97,10.0,ESE,9.2,-,N/A,,Clear,120,2012-12-06 13:55:00
8:15 AM,42.8,35.6,76,29.96,10.0,SE,9.2,-,N/A,,Clear,140,2012-12-06 14:15:00
8:35 AM,42.8,37.4,81,29.97,10.0,SE,9.2,-,N/A,,Clear,130,2012-12-06 14:35:00
8:55 AM,44.6,37.4,76,29.96,10.0,SE,9.2,-,N/A,,Clear,130,2012-12-06 14:55:00
9:15 AM,46.4,39.2,76,29.96,10.0,SE,9.2,-,N/A,,Clear,140,2012-12-06 15:15:00
9:35 AM,50.0,41.0,71,29.96,10.0,SSE,9.2,-,N/A,,Clear,150,2012-12-06 15:35:00
9:55 AM,50.0,42.8,76,29.96,10.0,SSE,11.5,-,N/A,,Clear,160,2012-12-06 15:55:00
10:15 AM,51.8,42.8,71,29.96,10.0,SSE,10.4,-,N/A,,Clear,150,2012-12-06 16:15:00
10:35 AM,50.0,42.8,76,29.95,10.0,SSE,9.2,-,N/A,,Clear,150,2012-12-06 16:35:00
10:55 AM,53.6,44.6,72,29.95,10.0,SE,10.4,-,N/A,,Clear,140,2012-12-06 16:55:00
11:15 AM,53.6,44.6,72,29.94,10.0,SSE,10.4,-,N/A,,Clear,160,2012-12-06 17:15:00
11:35 AM,55.4,44.6,67,29.93,10.0,SSE,9.2,-,N/A,,Clear,150,2012-12-06 17:35:00
11:55 AM,55.4,44.6,67,29.92,10.0,South,9.2,-,N/A,,Clear,170,2012-12-06 17:55:00
12:15 PM,55.4,44.6,67,29.91,10.0,SSE,9.2,-,N/A,,Clear,150,2012-12-06 18:15:00
12:35 PM,57.2,44.6,63,29.91,10.0,SSE,9.2,-,N/A,,Clear,150,2012-12-06 18:35:00
12:55 PM,57.2,44.6,63,29.89,10.0,SE,6.9,-,N/A,,Clear,140,2012-12-06 18:55:00
1:15 PM,59.0,44.6,59,29.88,10.0,SE,9.2,-,N/A,,Clear,140,2012-12-06 19:15:00
1:35 PM,59.0,46.4,63,29.87,10.0,SSE,8.1,-,N/A,,Clear,150,2012-12-06 19:35:00
1:55 PM,59.0,46.4,63,29.86,10.0,SE,8.1,-,N/A,,Clear,140,2012-12-06 19:55:00
2:15 PM,60.8,44.6,55,29.85,10.0,SE,10.4,-,N/A,,Clear,140,2012-12-06 20:15:00
2:35 PM,60.8,46.4,59,29.84,10.0,SE,9.2,-,N/A,,Clear,130,2012-12-06 20:35:00
2:55 PM,60.8,44.6,55,29.84,10.0,SE,9.2,-,N/A,,Clear,130,2012-12-06 20:55:00
3:15 PM,60.8,44.6,55,29.84,10.0,SE,8.1,-,N/A,,Clear,140,2012-12-06 21:15:00
3:35 PM,60.8,44.6,55,29.84,10.0,SE,6.9,-,N/A,,Clear,130,2012-12-06 21:35:00
3:55 PM,-9999,-9999,N/A,-9999,-9999.0,North,-9999.0,-,N/A,,Unknown,0,2012-12-06 21:55:00
4:15 PM,-9999,-9999,N/A,-9999,-9999.0,North,-9999.0,-,N/A,,Unknown,0,2012-12-06 22:15:00
4:35 PM,-9999,-9999,N/A,-9999,-9999.0,North,-9999.0,-,N/A,,Unknown,0,2012-12-06 22:35:00
7:15 PM,50.0,44.6,82,29.84,10.0,SSE,5.8,-,N/A,,Clear,150,2012-12-07 01:15:00
7:35 PM,48.2,44.6,87,29.87,10.0,WSW,5.8,-,N/A,,Clear,240,2012-12-07 01:35:00
7:55 PM,48.2,44.6,87,29.87,10.0,SSW,3.5,-,N/A,,Clear,210,2012-12-07 01:55:00
8:35 PM,48.2,42.8,82,29.88,10.0,South,3.5,-,N/A,,Clear,170,2012-12-07 02:35:00
8:55 PM,50.0,42.8,76,29.88,10.0,SSW,4.6,-,N/A,,Clear,210,2012-12-07 02:55:00
9:15 PM,50.0,42.8,76,29.88,10.0,SSW,4.6,-,N/A,,Scattered Clouds,210,2012-12-07 03:15:00
9:35 PM,48.2,42.8,82,29.88,10.0,South,4.6,-,N/A,,Scattered Clouds,180,2012-12-07 03:35:00
9:55 PM,48.2,42.8,82,29.88,10.0,South,4.6,-,N/A,,Overcast,180,2012-12-07 03:55:00
10:15 PM,50.0,42.8,76,29.88,10.0,SSE,3.5,-,N/A,,Overcast,150,2012-12-07 04:15:00
10:35 PM,48.2,42.8,82,29.88,10.0,SSE,4.6,-,N/A,,Overcast,160,2012-12-07 04:35:00
10:55 PM,48.2,42.8,82,29.88,10.0,SSE,4.6,-,N/A,,Overcast,160,2012-12-07 04:55:00
11:15 PM,50.0,44.6,82,29.88,10.0,South,6.9,-,N/A,,Overcast,180,2012-12-07 05:15:00
11:35 PM,50.0,46.4,87,29.88,10.0,SSW,6.9,-,N/A,,Overcast,200,2012-12-07 05:35:00
11:55 PM,51.8,46.4,82,29.88,10.0,SSW,8.1,-,N/A,,Overcast,210,2012-12-07 05:55:00